This is the latest recevied weather packets stored in our database for station/object KE0YJJ-14. If no packets are shown the sender has not sent any weather packets the latest 10 day(s).
| Time | Temp. | Humidity | Pressure | Rain* | Wind** | Luminosity | Snow |
|---|---|---|---|---|---|---|---|
| 1777746155 | 15° C | 33% | - | 0 mm | - | - | - |
| 1777745852 | 14.44° C | 33% | - | 0 mm | - | - | - |
| 1777745552 | 14.44° C | 33% | - | 0 mm | - | - | - |
| 1777745248 | 13.89° C | 32% | - | 0 mm | - | - | - |
| 1777744946 | 14.44° C | 33% | - | 0 mm | - | - | - |
| 1777744645 | 15° C | 34% | - | 0 mm | - | - | - |
| 1777744340 | 14.44° C | 32% | - | 0 mm | - | - | - |
| 1777744038 | 14.44° C | 31% | - | 0 mm | - | - | - |
| 1777743735 | 14.44° C | 33% | - | 0 mm | - | - | - |
| 1777743432 | 13.89° C | 32% | - | 0 mm | - | - | - |
| 1777743129 | 14.44° C | 31% | - | 0 mm | - | - | - |
| 1777742827 | 13.89° C | 34% | - | 0 mm | - | - | - |
| 1777742523 | 13.89° C | 32% | - | 0 mm | - | - | - |
| 1777742218 | 13.33° C | 31% | - | 0 mm | - | - | - |
| 1777741915 | 13.33° C | 32% | - | 0 mm | - | - | - |
| 1777741613 | 13.33° C | 34% | - | 0 mm | - | - | - |
| 1777741310 | 13.33° C | 33% | - | 0 mm | - | - | - |
| 1777741006 | 12.78° C | 33% | - | 0 mm | - | - | - |
| 1777740703 | 12.78° C | 33% | - | 0 mm | - | - | - |
| 1777740399 | 13.33° C | 35% | - | 0 mm | - | - | - |
| 1777740096 | 12.78° C | 35% | - | 0 mm | - | - | - |
| 1777739792 | 13.33° C | 36% | - | 0 mm | - | - | - |
| 1777739489 | 12.78° C | 34% | - | 0 mm | - | - | - |
| 1777739186 | 12.22° C | 33% | - | 0 mm | - | - | - |
| 1777738883 | 12.78° C | 33% | - | 0 mm | - | - | - |
* Rain latest hour (hover to see other rain measurements)
** Current wind speed in m/s (hover to see current wind gust speed)